Location: Puketoi
(40.5833°S, 176.0167°E)
Time: 15:05:30
(UTC+00:00)

SL-16 R/B - Pass Details

Date: 08 February 2023
Orbit: 986 x 1006 km, 99.6° (Epoch: 22 March)

Event Time Altitude Azimuth Distance (km) Brightness Sun altitude
Rises 14:17:07 0° 153° (SSE) 3,742 6.8 -29.2°
Reaches altitude 10° 14:20:06 10° 140° (SE) 2,782 5.8 -28.9°
Maximum altitude 14:25:10 26° 86° (E) 1,866 4.2 -28.4°
Enters shadow 14:28:11 18° 46° (NE) 2,223 4.2 -28.1°
